Regional Weather Roundup
Issued by NWS

Home | Current Version | Previous Version | Graphics & Text | Print | Product List | Glossary On
Versions: 1 2 3 4 5 6 7 8 9 10 11 12 13 14 15 16 17 18 19 20 21 22 23 24 25 26 27 28 29 30 31 32 33 34 35 36 37 38 39 40 41 42 43 44 45 46 47 48 49 50
000
ASUS45 KSLC 240910
RWRUT

UTAH REGIONAL WEATHER ROUNDUP
NATIONAL WEATHER SERVICE SALT LAKE CITY UT
300 AM MDT TUE APR 24 2018

UTZ001>011-023>025-241000-

NORTHERN UTAH

CITY           SKY/WX    TMP DP  RH WIND       PRES   REMARKS
BRIGHAM CITY   CLEAR     45  32  61 SW7       30.25S
HILL AFB       CLEAR     44  29  56 NE15      30.22F
LOGAN          CLEAR     36  31  82 CALM      30.28S
OGDEN          CLEAR     43  33  68 N3        30.22R
SALT LAKE CITY CLEAR     44  37  76 SW5       30.22R
TOOELE VALLEY  CLEAR     45  37  76 N8        30.24S
WENDOVER       CLEAR     49  29  46 N14       30.26S
HEBER CITY       N/A     36  21  55 E7        30.24S WCI  30
WEST JORDAN    CLEAR     45  35  67 W12       30.23S

$$

UTZ011>015-024>027-241000-

CENTRAL/NORTHEAST UTAH

CITY           SKY/WX    TMP DP  RH WIND       PRES   REMARKS
PROVO AIRPORT  CLEAR     46  26  45 N3        30.22R
MOAB/CANYONLAN CLOUDY    63  31  30 SE7       30.04F
DELTA          CLEAR     45  23  42 N10       30.20S
PRICE          CLEAR     45  17  32 NW7       30.18S
ROOSEVELT      CLEAR     45  25  45 NE3       30.25R
VERNAL         CLEAR     43  27  53 E12       30.23R

$$

UTZ013>016-019>022-027-241000-

SOUTHERN UTAH

CITY           SKY/WX    TMP DP  RH WIND       PRES   REMARKS
BRYCE CANYON   CLEAR     32  25  75 W7        30.24F WCI  26
CEDAR CITY     CLEAR     43  33  68 S3        30.17S
MILFORD        CLEAR     43  31  62 MISG      30.18R
ST GEORGE      SUNNY     68  29  23 NE18G24   29.99S
HANKSVILLE     MOCLDY    61  23  23 N8        30.11R
BLANDING         N/A     56  26  31 N8        30.18F

$$

REGIONAL REPORTS     COLORADO/ARIZONA

CITY           SKY/WX    TMP DP  RH WIND       PRES   REMARKS
CRAIG, CO      MOCLDY    37  31  78 W9        30.27S WCI  30
GRAND JUNCTION CLOUDY    60  29  30 N5        30.12F
RIFLE, CO        N/A     53  31  42 NW6       30.17F
MONTROSE, CO   CLOUDY    56  33  42 N16       30.21R
CORTEZ, CO     CLEAR     42  19  39 E3        30.12S
COLORADO CITY    N/A     43  27  52 CALM      30.11F
PAGE, AZ       MOCLDY    66  21  18 S5        30.04S
GRAND CANYON   PTCLDY    33  14  45 CALM      30.20F
KINGMAN, AZ    MOCLDY    65  22  19 NW3       30.01F
FLAGSTAFF, AZ  PTCLDY    41  16  36 S3        30.22F

$$

REGIONAL REPORTS    NEVADA/IDAHO/WYOMING

CITY           SKY/WX    TMP DP  RH WIND       PRES   REMARKS
LAS VEGAS, NV  MOCLDY    76  23  14 S12       29.90S
ELY, NY        CLEAR     40  18  41 NE14      30.24S WCI  32
ELKO, NV       CLEAR     42  18  37 NE3       30.26R
POCATELLO, ID  CLEAR     34  29  82 E6        30.35R WCI  29
BURLEY, ID     CLEAR     39  30  70 VRB7      30.32R WCI  34
EVANSTON, WY   CLEAR     30  25  81 N7        30.28S WCI  23
ROCK SPRINGS,  CLOUDY    31  24  75 NE21      30.35S WCI  18
KEMMERER, WY   PTCLDY    28  23  80 E9        30.33R WCI  20

$$



USA.gov is the U.S. government's official web portal to all federal, state and local government web resources and services.